DW9750 Weather Reports


time (UTC)temp
C
wind
direction
speed
KPH
gust
KPH
rain 1hr
cm
rain 24hr
cm
rain mn
cm
humidity
%
barometer
mb
20220627213057 22 309 0.0 0.0 0.05 1.40 1.40 77 1016.7
20220627211556 21 309 0.0 0.0 0.18 1.37 1.37 77 1016.4
20220627210056 21 309 0.0 0.0 1.37 1.37 1.37 77 1016.6
20220627204555 21 103 1.6 8.0 1.37 1.37 1.37 77 1016.2
20220627203054 21 86 1.6 11.3 1.35 1.35 1.35 78 1016.5
20220627201557 22 117 4.8 17.7 1.19 1.19 1.19 81 1017.0
20220627200051 32 87 3.2 17.7 0.00 0.00 0.00 49 1016.5
20220627194551 35 261 0.0 6.4 0.00 0.00 0.00 43 1016.0
20220627193055 35 276 0.0 11.3 0.00 0.00 0.00 43 1016.0
20220627191554 34 79 1.6 17.7 0.00 0.00 0.00 46 1016.1
20220627190046 35 96 0.0 4.8 0.00 0.00 0.00 41 1016.4
20220627184556 36 88 0.0 8.0 0.00 0.00 0.00 39 1016.7
20220627183041 35 15 0.0 8.0 0.00 0.00 0.00 39 1016.9
20220627181640 35 105 0.0 8.0 0.00 0.00 0.00 42 1017.2
20220627180038 36 5 1.6 11.3 0.00 0.00 0.00 39 1017.5
20220627174537 35 108 0.0 9.7 0.00 0.00 0.00 41 1017.6
20220627173044 35 114 0.0 6.4 0.00 0.00 0.00 40 1017.8
20220627171534 33 141 1.6 6.4 0.00 0.00 0.00 43 1017.9
20220627170032 33 3 0.0 4.8 0.00 0.00 0.00 47 1018.0
20220627164538 32 1 0.0 8.0 0.00 0.00 0.00 47 1018.2
20220627163031 33 95 0.0 8.0 0.00 0.00 0.00 44 1018.1
20220627161530 34 3 0.0 12.9 0.00 0.00 0.00 44 1018.2
20220627160026 33 27 0.0 8.0 0.00 0.00 0.00 45 1018.2
20220627154523 33 302 0.0 8.0 0.00 0.00 0.00 45 1018.3
20220627153020 33 32 0.0 8.0 0.00 0.00 0.00 45 1018.4
20220627151522 32 5 0.0 6.4 0.00 0.00 0.00 45 1018.5
20220627150017 32 102 0.0 8.0 0.00 0.00 0.00 46 1018.5
20220627144520 31 6 0.0 6.4 0.00 0.00 0.00 48 1018.5
20220627143011 31 24 0.0 4.8 0.00 0.00 0.00 48 1018.5
20220627141508 30 28 0.0 4.8 0.00 0.00 0.00 50 1018.4
20220627140004 29 296 0.0 6.4 0.00 0.00 0.00 55 1018.4
20220627134559 27 219 0.0 3.2 0.00 0.00 0.00 62 1018.5
20220627133058 26 269 0.0 3.2 0.00 0.00 0.00 67 1018.6
20220627131557 25 290 0.0 1.6 0.00 0.00 0.00 71 1018.5
20220627130059 23 3 0.0 1.6 0.00 0.00 0.00 74 1018.6
20220627124554 23 3 0.0 0.0 0.00 0.00 0.00 75 1018.7
20220627123054 23 5 0.0 0.0 0.00 0.00 0.00 75 1018.7
20220627121552 22 5 0.0 1.6 0.00 0.00 0.00 75 1018.6
20220627120056 22 31 0.0 0.0 0.00 0.00 0.00 75 1018.2
20220627114550 22 50 0.0 0.0 0.00 0.00 0.00 74 1018.1
20220627113046 22 53 0.0 1.6 0.00 0.00 0.00 75 1018.2
20220627111551 20 100 0.0 1.6 0.00 0.00 0.00 79 1017.9
20220627110044 20 100 0.0 0.0 0.00 0.00 0.00 77 1017.4
20220627104550 21 100 0.0 0.0 0.00 0.00 0.00 77 1017.4
20220627103047 21 100 0.0 0.0 0.00 0.00 0.00 78 1017.5
20220627101547 21 100 0.0 0.0 0.00 0.00 0.00 78 1017.5
20220627100040 21 100 0.0 1.6 0.00 0.00 0.00 77 1017.6
20220627094539 20 100 0.0 0.0 0.00 0.00 0.00 76 1017.5
20220627093043 20 100 0.0 0.0 0.00 0.00 0.00 76 1017.6
20220627091537 21 100 0.0 0.0 0.00 0.00 0.00 76 1017.4
20220627090035 21 100 0.0 0.0 0.00 0.00 0.00 75 1017.4
20220627084533 21 100 0.0 0.0 0.00 0.00 0.00 74 1017.3
20220627083032 21 100 0.0 0.0 0.00 0.00 0.00 73 1017.2
20220627081530 22 100 0.0 0.0 0.00 0.00 0.00 71 1017.3
20220627080025 22 100 0.0 0.0 0.00 0.00 0.00 69 1017.3
20220627074522 23 100 0.0 0.0 0.00 0.00 0.00 68 1017.5
20220627073020 23 100 0.0 0.0 0.00 0.00 0.00 68 1017.7
20220627071518 23 100 0.0 0.0 0.00 0.00 0.00 67 1017.8
20220627070017 23 100 0.0 0.0 0.00 0.00 0.00 67 1017.8
20220627064514 25 100 0.0 0.0 0.00 0.00 0.00 64 1017.9
20220627063009 26 100 0.0 0.0 0.00 0.00 0.00 63 1018.0
20220627061515 26 100 0.0 1.6 0.00 0.00 0.00 60 1017.9
20220627060016 26 100 0.0 3.2 0.00 0.00 0.00 62 1017.9
20220627054506 26 110 0.0 0.0 0.00 0.00 0.00 65 1017.8
20220627053002 26 110 0.0 0.0 0.00 0.00 0.00 64 1017.7
20220627051601 26 110 0.0 1.6 0.00 0.00 0.00 63 1017.5
20220627050055 27 110 0.0 0.0 0.00 0.00 0.00 62 1017.2
20220627044554 27 110 0.0 1.6 0.00 0.00 0.00 58 1017.1
20220627043054 28 110 0.0 9.7 0.00 0.00 0.00 56 1017.1
20220627041553 28 109 0.0 6.4 0.00 0.00 0.00 54 1016.7
20220627040052 28 93 0.0 6.4 0.00 0.00 0.00 48 1016.6
20220627034551 26 117 0.0 0.0 0.00 0.00 0.00 51 1016.0
20220627033054 27 117 0.0 0.0 0.00 0.00 0.00 49 1015.7
20220627031551 28 117 0.0 0.0 0.00 0.00 0.00 46 1015.4
20220627030050 28 117 0.0 0.0 0.00 0.00 0.00 45 1015.3
20220627024601 28 117 0.0 0.0 0.00 0.00 0.00 44 1015.1
20220627023050 30 117 0.0 1.6 0.00 0.00 0.00 42 1014.9
20220627021548 30 117 0.0 0.0 0.00 0.00 0.00 41 1014.8
20220627020047 31 117 0.0 0.0 0.00 0.00 0.00 39 1014.6
20220627014546 32 117 0.0 6.4 0.00 0.00 0.00 37 1014.5
20220627013046 32 84 0.0 11.3 0.00 0.00 0.00 35 1014.3
20220627011546 33 103 0.0 12.9 0.00 0.00 0.00 33 1014.2
20220627010048 34 86 1.6 11.3 0.00 0.00 0.00 31 1014.0
20220627004545 35 108 3.2 12.9 0.00 0.00 0.00 29 1013.9
20220627003046 35 114 0.0 11.3 0.00 0.00 0.00 29 1013.8
20220627001644 35 93 0.0 16.1 0.00 0.00 0.00 29 1013.5
20220627000043 35 74 4.8 14.5 0.00 0.00 0.00 28 1013.6
20220626234542 36 112 0.0 16.1 0.00 0.00 0.00 27 1013.5
20220626233049 36 114 4.8 16.1 0.00 0.00 0.00 27 1013.4
20220626231543 36 112 3.2 12.9 0.00 0.00 0.00 28 1013.4
20220626230050 36 104 1.6 19.3 0.00 0.00 0.00 29 1013.5
20220626224538 36 91 1.6 8.0 0.00 0.00 0.00 28 1013.6
20220626223038 37 80 3.2 12.9 0.00 0.00 0.00 27 1013.7
20220626221537 37 122 0.0 8.0 0.00 0.00 0.00 26 1013.7
20220626220033 37 99 0.0 17.7 0.00 0.00 0.00 25 1013.9
20220626214536 37 98 3.2 16.1 0.00 0.00 0.00 25 1014.0